Regional Weather Roundup
Issued by NWS

Home | Current Version | Previous Version | Graphics & Text | Print | Product List | Glossary On
Versions: 1 2 3 4 5 6 7 8 9 10 11 12 13 14 15 16 17 18 19 20 21 22 23 24 25 26 27 28 29 30 31 32 33 34 35 36 37 38 39 40 41 42 43 44 45 46 47 48 49 50
481
ASUS45 KBOU 231707
RWRCO

WEATHER ROUNDUP FOR COLORADO
NATIONAL WEATHER SERVICE DENVER/BOULDER CO
1100 AM MDT MON MAY 23 2016

NOTE: "FAIR" INDICATES FEW OR NO CLOUDS BELOW 12000 FEET WITH NO
SIGNIFICANT WEATHER AND/OR OBSTRUCTIONS TO VISIBILITY.

COZ001>005-013-030-031-231800-
...NORTHWEST COLORADO...

CITY           SKY/WX    TMP DP  RH WIND       PRES   REMARKS
CRAIG          FAIR      56  27  32 VRB3      29.97F
HAYDEN         FAIR      52  27  37 NE3       29.98F
MEEKER         FAIR      57  26  30 S5        29.96F
MOUNT WERNER   NOT AVBL
STEAMBOAT SPGS FAIR      53  27  37 NW5       29.98F
WALDEN         FAIR      52  19  28 S12       30.02F
$$

COZ006>008-011-231800-
...WEST CENTRAL VALLEYS...

CITY           SKY/WX    TMP DP  RH WIND       PRES   REMARKS
GRAND JUNCTION FAIR      62  26  25 SE10      29.90F
MONTROSE       FAIR      60  28  29 NW6       29.95F
EAGLE          MOSUNNY   55  21  26 CALM      29.98F
RIFLE          FAIR      59  29  31 SE3       29.93F
DELTA          FAIR      63  23  22 CALM      29.93F
NUCLA          FAIR      63  25  23 SW10      29.98F
$$

COZ017>023-064>068-231800-
...SOUTHWEST COLORADO...

CITY           SKY/WX    TMP DP  RH WIND       PRES   REMARKS
DURANGO        FAIR      58  25  28 NW6       30.03F
CORTEZ         FAIR      63  25  23 SW16G23   29.98F
PAGOSA SPRINGS FAIR      56  19  23 S9        30.07S
TELLURIDE      FAIR      52  19  27 SE8G17    30.08R
WOLF CREEK PAS FAIR      34  18  51 SW23G36   30.22S WCI  22
$$

COZ009-010-012-014-032>034-037-058>063-231800-
...CENTRAL COLORADO...

CITY           SKY/WX    TMP DP  RH WIND       PRES   REMARKS
ASPEN          PTSUNNY   54  27  35 N7        29.97F
BUENA VISTA    FAIR      59  20  22 SE18G25   29.99F
COPPER MTN     NOT AVBL
BERTHOUD PASS  CLOUDY    32  23  69 W13G26    30.17S WCI  22
COTTONWOOD PAS PTSUNNY   52  19  28 E15       30.06S
GUNNISON       FAIR      55  25  30 S3        30.02F
KREMMLING      PTSUNNY   52  27  37 CALM      30.00F
LEADVILLE      PTSUNNY   48  12  23 SW9       30.05F
MONARCH PASS   CLOUDY    37  18  44 SW16G26   30.27S
SALIDA         FAIR      64  20  18 S10G20    30.05F
SUNLIGHT       CLOUDY    41  27  56 NW3       30.14S
WILKERSON PASS FAIR      45  23  42 SW8       30.16F
$$

COZ069>075-231800-
...SAN LUIS VALLEY/SANGRE DE CRISTO MOUNTAINS...

CITY           SKY/WX    TMP DP  RH WIND       PRES   REMARKS
ALAMOSA        FAIR      62  19  19 S16       30.00F
LA VETA PASS   FAIR      50  21  32 S5G20     30.14S
SAGUACHE       FAIR      59  21  23 S16       30.02F
$$

COZ035-036-038>040-231800-
...NORTHERN COLORADO FRONT RANGE...

CITY           SKY/WX    TMP DP  RH WIND       PRES   REMARKS
DENVER INTL AP PTSUNNY   61  36  39 SE22G28   29.93F
DMNS CITY PARK   N/A     63  35  35 E14G26    29.91F
AURORA         PTSUNNY   62  35  36 SE22      29.93F
FRONT RANGE AP PTSUNNY   59  34  38 SE16G26   29.95F
ERIE MUNI ARPT FAIR      62  35  36 SE15      29.92F
BOULDER MUN AP NOT AVBL
CENTENNIAL     PTSUNNY   62  34  35 SE18G28   29.93F
BROOMFIELD     PTSUNNY   61  36  39 SE10      29.94F
FORT COLLINS   FAIR      61  37  41 S12       29.93S
LONGMONT       FAIR      64  36  34 S10       29.94S
$$

COZ041-046-047-076>085-087-088-231800-
...PIKES PEAK/PALMER DIVIDE AND SOUTHERN FOOTHILLS...

CITY           SKY/WX    TMP DP  RH WIND       PRES   REMARKS
COLO. SPRINGS  FAIR      60  29  30 SE14G21   30.01F
A. F. ACADEMY  FAIR      59  30  33 S21       29.99F
SCHRIEVER AFB  NOT AVBL
ELLICOTT       FAIR     N/A N/A N/A SE9G22    29.99S
FALCON         FAIR      58  26  29 SE8       30.02F
FORT CARSON    FAIR      60  31  33 SE8       29.98F
LIMON          FAIR      61  31  32 VRB6      29.95F
MONUMENT HILL  FAIR      55  32  41 S21G26    30.01S
TRINIDAD       FAIR      62  39  42 VRB3      29.98F
$$

COZ042>045-048>051-090-091-231800-
...NORTHEAST COLORADO...

CITY           SKY/WX    TMP DP  RH WIND       PRES   REMARKS
GREELEY ARPT   FAIR      64  39  39 S13       29.93F
AKRON          FAIR      65  34  31 N12       29.92S
BURLINGTON     FAIR      70  38  31 MISG      29.90S
WRAY           NOT AVBL
STERLING       FAIR      66  34  30 NW5       29.89S
HOLYOKE        FAIR      73  34  23 N6        29.88F
FORT MORGAN    FAIR      60  40  47 CALM      29.94S
$$

COZ086-089-092>099-231800-
...SOUTHEAST COLORADO...

CITY           SKY/WX    TMP DP  RH WIND       PRES   REMARKS
PUEBLO         FAIR      67  31  26 VRB5      29.94F
LA JUNTA       FAIR      73  30  20 NE8       29.92S
LAMAR          FAIR      74  42  31 E14G24    29.87R
SPRINGFIELD      N/A     70  53  54 N8        29.89F
$$




USA.gov is the U.S. government's official web portal to all federal, state and local government web resources and services.